Temp_Advection
nan nan nan nan nan nan nan nan nan nan nan nan nan nan nan nan nan nan nan nan nan nan nan nan nan nan nan nan nan nan nan nan nan nan nan nan nan nan nan nan nan nan nan nan nan nan nan nan nan
nan 0 -0 -0 0 -0 -1 -1 -1 -1 -0 -0 -0 -0 -0 -0 -1 0 0 0 1 1 0 -0 0 0 -0 -0 0 0 -0 -0 0 -0 -0 -0 -0 -0 -0 0 0 -0 -0 1 1 0 0 -0 nan
nan 0 -0 0 -0 -1 -1 -1 -1 -1 0 -0 -0 0 -0 -1 -0 0 0 0 0 1 2 1 0 0 0 0 0 0 -0 0 0 -0 -0 0 0 0 -0 -0 0 -0 0 1 0 0 0 -0 nan
nan -0 -0 -0 -1 -1 -1 -1 -1 -1 0 0 0 0 -0 -1 -0 0 0 -0 -0 0 1 1 0 -0 0 0 0 -0 0 0 -0 -0 0 0 -0 -0 1 1 -0 -0 -0 0 0 -0 -0 -1 nan
nan -0 0 -0 -1 -1 -1 -1 -0 0 -0 0 0 0 -0 0 0 0 0 -0 -0 -0 0 0 0 -0 -0 0 0 0 1 0 -0 0 -0 -0 0 -0 1 1 0 0 0 0 0 -0 -0 -1 nan
nan 0 0 -0 -1 -1 -1 -1 -0 -0 -0 0 0 0 -1 0 0 0 0 0 -0 -0 0 0 1 1 0 0 -0 1 0 1 -0 0 0 -0 -0 0 0 1 0 0 0 0 0 -0 -0 -1 nan
nan 0 -0 -1 -1 -1 -1 -0 0 -0 -0 -0 0 0 -1 0 1 0 1 1 0 0 0 0 0 0 1 0 1 0 0 0 0 0 0 0 -0 -0 -0 0 0 0 0 0 0 -0 -0 -0 nan
nan 0 -0 -0 -0 -1 -1 -0 0 0 -0 0 0 0 -0 -0 1 1 1 1 1 1 0 0 0 0 1 1 1 0 0 0 0 -0 -0 -0 0 0 -1 -1 0 0 -0 0 0 -0 -0 -0 nan
nan 0 -0 -1 -1 -1 -0 -0 0 0 0 0 -0 -0 -0 0 0 1 1 1 1 1 0 0 0 1 1 1 0 0 0 0 0 0 0 -0 -0 0 0 -0 -0 0 0 -0 0 -0 -0 -0 nan
nan -0 -1 -1 -0 -0 -0 0 0 0 0 0 0 0 -0 0 0 0 0 0 0 0 0 0 0 1 1 0 -0 0 0 0 0 0 1 1 0 0 0 0 0 0 -0 -0 0 0 0 0 nan
nan -1 -1 -1 -0 0 -0 0 0 0 -0 -0 0 0 -0 -0 0 0 -0 0 0 0 0 1 0 0 0 -0 -0 0 0 0 0 -0 0 0 0 0 0 0 0 0 -0 -1 -0 0 0 0 nan
nan -1 -1 -1 -0 1 0 -0 0 0 -0 -0 -0 0 1 0 -0 0 -0 -0 -0 0 0 0 -0 -0 -0 -0 -0 -0 -0 0 0 0 -0 -0 0 0 0 0 0 -0 0 -0 -1 -1 -0 -0 nan
nan -0 -0 0 0 0 0 1 0 -0 -0 0 0 1 0 1 0 0 0 1 0 0 0 -0 -0 -0 -0 0 -0 -0 -0 -0 0 0 -0 -0 0 0 0 0 -0 -0 -0 0 -0 -1 -1 -1 nan
nan 1 0 -0 0 0 0 0 0 0 -0 -0 0 0 1 0 0 0 1 1 1 0 -0 0 -0 0 0 0 -0 -0 -0 -0 0 -0 0 0 0 0 0 -0 -0 -0 0 0 0 -0 -0 -0 nan
nan 0 0 0 0 0 1 1 -1 -1 -0 0 -0 0 1 0 0 0 0 1 1 0 -0 0 0 0 0 0 -0 0 -0 0 -0 -0 0 0 0 0 0 -0 -0 -0 -0 -0 0 0 0 -0 nan
nan 1 -0 -1 -0 0 0 -0 -1 -1 -0 -1 -0 0 0 0 0 0 0 1 1 -0 1 0 1 0 0 0 0 0 0 0 0 0 -0 0 -0 0 -0 -0 -0 0 -0 -0 -0 0 -0 0 nan
nan 1 -1 -1 -0 -0 0 -0 -1 -1 -1 -0 -0 -0 0 0 -0 0 1 0 -0 1 1 0 1 1 0 0 0 0 0 0 0 0 0 -0 -0 0 -0 -0 -0 0 0 0 0 0 0 -0 nan
nan -1 -1 -1 -0 0 1 -1 -1 -1 -0 -0 -0 -0 -0 -0 0 0 0 0 0 1 0 0 1 1 1 0 0 0 0 0 0 0 0 -0 -0 0 0 0 0 -0 -0 -0 -0 -0 -0 0 nan
nan 0 -0 -1 -1 0 0 -1 -0 -0 -1 -0 -0 -0 -1 -0 -0 0 0 0 1 1 0 1 0 0 1 1 0 0 0 0 0 0 0 1 0 -0 0 0 0 0 -0 -0 -0 -0 -1 -1 nan
nan -0 -1 -1 -0 0 0 -0 -0 -0 -0 -0 -0 -0 -0 0 0 0 0 1 2 1 0 1 0 0 1 1 1 0 0 0 0 1 0 1 0 -0 0 0 0 0 0 -0 -0 0 -0 -0 nan
nan -1 0 -2 -1 1 1 1 0 -0 -0 -0 0 0 -0 0 0 0 1 1 2 1 0 1 1 0 0 1 0 0 0 0 0 0 0 0 0 1 0 0 0 0 0 0 0 0 0 0 nan
nan -1 -1 -1 1 1 1 -0 0 -0 -0 -0 -0 -0 -0 0 0 0 0 1 -0 -0 0 -0 1 1 0 0 1 0 0 -0 -1 -1 -0 -0 0 1 0 0 0 0 0 0 0 0 0 0 nan
nan -1 1 1 -0 0 0 -0 -0 -0 -0 -1 -0 -0 -0 0 0 0 0 0 -1 -0 0 1 1 1 1 0 0 1 -0 -0 -1 -0 0 0 -0 0 1 0 0 0 0 0 0 0 0 0 nan
nan 1 0 1 0 0 -0 -0 -1 -0 -1 -1 -0 -0 -0 0 0 0 1 0 1 1 1 2 1 1 1 1 0 0 0 1 -0 -0 -1 -1 -1 0 0 0 0 0 0 0 0 0 0 0 nan
nan 1 1 0 -0 -0 -1 -0 -1 -0 -0 -0 -0 -0 -0 -0 0 0 1 0 2 1 1 1 1 1 1 1 -0 -1 0 -1 -0 -1 -1 -1 -1 -0 0 0 1 0 0 0 0 0 0 0 nan
nan 1 -0 -0 0 -0 0 0 -1 -2 -1 -1 -0 0 -0 -0 0 0 0 1 0 0 1 0 1 1 1 -0 -0 0 -1 0 1 0 -0 -0 -0 -0 0 0 1 1 0 0 0 0 0 0 nan
nan 0 -0 0 -0 0 0 -0 -0 -0 0 0 -0 0 0 0 0 -0 0 1 0 0 1 0 0 1 0 -0 0 0 1 1 1 0 0 0 0 1 0 0 1 1 1 0 0 0 0 0 nan
nan -0 0 -0 -0 -0 -0 -0 0 0 0 0 0 -0 -0 0 0 0 -0 1 0 2 2 1 1 1 1 1 1 2 2 -0 0 0 1 0 0 1 0 0 0 0 0 0 0 0 0 0 nan
nan -0 0 -0 0 0 0 0 0 -0 -0 -0 0 0 -1 -0 0 1 0 0 1 2 2 2 2 1 1 1 1 1 0 0 0 0 0 1 1 0 -0 0 0 0 0 0 0 0 0 0 nan
nan nan nan nan nan nan nan nan nan nan nan nan nan nan nan nan nan nan nan nan nan nan nan nan nan nan nan nan nan nan nan nan nan nan nan nan nan nan nan nan nan nan nan nan nan nan nan nan nan
Wind_Speed
5 1 2 4 4 5 11 12 15 18 5 5 6 3 4 4 2 5 18 12 27 22 32 29 24 23 22 23 19 14 9 4 2 4 6 10 10 12 15 17 16 16 17 17 15 16 16 16 17
8 3 5 5 5 11 9 16 18 16 4 5 6 9 5 5 10 17 21 22 21 22 34 29 25 24 25 22 18 13 8 4 4 7 12 13 14 16 16 16 17 17 17 17 18 19 20 20 19
8 7 5 4 7 14 9 14 17 20 11 10 4 3 7 6 9 19 15 27 23 21 32 31 27 26 24 21 17 12 8 5 7 11 14 14 16 17 17 17 16 18 17 17 18 18 20 22 23
5 4 6 5 13 14 20 17 20 11 9 11 6 2 6 10 6 11 26 26 25 20 28 31 29 25 22 19 15 11 8 7 13 14 16 16 17 15 16 16 16 15 15 16 17 19 21 27 33
8 7 5 7 15 16 14 18 20 12 7 13 10 5 7 7 11 13 24 29 30 29 27 29 29 26 22 18 13 11 10 11 16 18 18 18 16 16 15 16 16 15 15 16 17 20 24 29 30
5 5 5 11 15 15 15 27 25 8 16 8 13 5 7 6 15 21 24 28 31 24 27 28 27 25 22 17 13 13 17 17 19 18 18 18 16 16 16 16 16 15 15 16 18 21 25 29 28
8 4 8 12 13 13 11 21 9 10 11 14 7 6 9 10 15 27 24 29 24 26 29 29 27 24 20 17 15 21 19 20 20 19 19 18 17 16 16 16 16 16 15 17 18 22 26 30 28
8 4 9 9 14 17 13 13 12 10 9 12 5 4 6 16 15 28 23 25 25 27 28 30 28 23 21 20 22 21 21 20 20 20 20 19 18 16 16 17 16 16 16 17 20 24 27 29 26
8 5 8 12 15 12 14 3 12 11 2 9 2 1 10 16 19 25 28 26 27 30 28 29 27 24 22 21 22 23 21 21 20 20 18 18 18 18 17 16 16 17 18 20 23 25 28 29 29
10 6 11 10 10 9 9 6 6 6 7 11 12 6 11 16 18 23 28 30 33 31 27 27 26 24 22 23 25 23 24 22 22 20 18 18 17 16 18 18 18 19 22 23 25 24 24 23 22
15 10 12 13 14 6 7 8 12 9 8 18 18 19 18 18 17 22 26 30 34 29 27 27 25 23 26 24 27 26 25 23 21 23 18 17 15 17 19 20 21 22 24 26 23 19 16 14 18
13 20 22 19 14 9 8 14 12 21 19 14 18 18 26 25 24 27 29 38 33 31 31 32 29 31 29 23 28 28 25 21 20 24 20 19 17 21 22 23 23 24 23 21 21 21 20 18 17
28 15 18 23 24 11 14 14 15 17 24 21 21 18 15 25 26 28 29 35 38 35 33 32 32 33 27 22 27 28 23 25 22 24 22 18 22 23 23 23 22 20 18 17 19 21 21 19 18
12 29 30 30 23 23 16 15 19 12 29 21 28 24 26 20 25 30 34 36 39 40 37 34 35 32 26 23 22 27 28 25 25 26 22 20 21 22 22 23 21 21 19 19 19 19 18 18 16
33 18 16 19 25 10 23 21 30 29 21 31 28 28 26 28 25 33 36 39 40 43 42 36 37 32 27 31 27 32 30 26 28 29 25 21 23 23 24 23 23 22 22 21 19 18 17 16 15
15 16 22 31 19 24 15 24 17 38 35 33 27 31 30 30 29 30 32 38 38 48 44 40 38 37 34 34 33 30 27 29 29 29 28 26 25 25 24 24 23 22 21 21 19 17 17 15 14
20 24 30 24 19 13 23 24 16 27 35 33 35 30 31 34 33 30 31 36 40 47 46 46 40 38 39 36 33 31 30 30 28 29 31 28 27 27 25 25 24 23 22 20 18 17 14 14 13
29 30 26 20 19 21 24 30 12 18 27 33 33 32 33 32 35 35 34 34 37 45 50 49 46 41 40 37 35 31 30 28 29 29 31 29 29 28 27 26 25 23 22 21 19 18 15 13 12
25 23 16 18 22 21 22 28 20 18 22 20 27 33 35 35 34 33 34 36 36 42 49 51 48 46 43 40 39 37 34 30 30 29 30 31 31 29 28 28 25 23 21 20 19 18 16 16 11
28 27 26 23 16 23 22 25 17 16 22 22 17 21 25 30 36 35 33 38 39 42 44 51 49 46 41 42 40 39 36 31 30 30 31 30 32 30 29 28 27 25 23 21 19 16 16 14 13
26 24 26 24 15 15 18 22 19 19 18 25 31 33 31 26 32 37 38 40 41 43 45 48 45 46 44 40 38 36 33 32 31 30 30 31 31 31 30 29 27 25 23 21 19 16 13 12 12
26 26 20 28 17 13 8 7 15 18 20 20 23 28 30 31 31 36 39 41 43 42 42 44 50 54 46 41 41 42 42 41 37 33 32 33 31 31 31 28 26 25 23 20 18 15 13 11 10
28 27 21 23 19 15 12 7 7 11 23 25 20 28 28 33 31 32 40 43 43 42 42 45 49 55 52 49 45 47 42 40 38 37 36 34 33 31 31 29 27 25 23 21 18 15 13 11 9
25 24 24 20 11 18 24 14 18 9 18 15 18 35 38 37 36 36 32 40 46 44 41 46 52 54 56 52 50 48 44 49 43 41 39 37 35 33 31 30 28 26 23 21 18 15 13 10 8
28 22 11 11 13 12 19 15 15 9 13 18 13 16 34 41 40 42 41 37 47 49 44 45 51 52 56 55 52 49 45 43 43 43 42 40 39 36 33 32 31 28 24 21 18 15 13 10 8
21 25 9 15 7 8 14 9 7 25 19 9 13 6 8 36 40 40 43 39 43 48 46 45 49 53 58 59 55 47 44 41 41 43 43 42 41 39 37 33 30 28 26 22 18 15 12 9 6
4 19 20 5 3 0 6 4 3 12 16 8 5 13 18 16 23 38 41 39 41 46 49 46 49 53 57 59 56 52 47 45 47 48 44 41 41 41 38 34 31 29 26 22 18 14 11 9 6
7 5 11 7 5 6 6 8 5 15 9 10 9 4 13 19 23 23 38 42 41 48 51 47 50 56 59 58 57 54 51 47 44 45 44 42 42 42 39 36 32 29 26 23 19 15 12 9 6
6 5 7 3 2 1 3 4 11 12 11 10 10 14 17 16 23 28 24 37 40 46 50 50 48 54 57 61 58 54 52 48 39 42 42 43 43 43 40 37 34 30 26 23 19 15 12 9 6
8 11 10 4 4 1 3 2 13 15 12 9 9 12 11 14 12 1 19 32 37 46 48 50 46 54 56 58 56 57 52 48 48 44 46 44 44 44 41 38 35 30 26 22 18 15 11 9 7
Wind_Direction
242 169 267 280 239 227 237 227 253 273 308 333 13 352 345 281 19 158 146 150 173 179 173 169 166 163 161 172 171 171 171 189 176 150 135 117 111 103 103 104 102 100 99 96 94 92 91 94 100
166 216 186 248 239 241 235 228 250 234 212 76 46 348 341 97 77 128 148 165 181 175 166 167 167 165 173 172 172 175 184 190 161 137 118 116 112 109 110 108 105 104 104 97 95 95 92 92 99
174 181 209 202 236 234 248 256 217 242 171 132 123 271 318 71 99 134 164 168 173 173 164 165 166 173 176 176 176 179 187 176 151 129 122 120 116 110 107 110 108 108 107 101 100 97 93 91 96
159 173 265 247 239 229 245 271 282 272 135 158 207 198 111 76 119 147 150 158 169 166 169 164 170 177 178 179 180 185 180 169 137 131 122 122 115 116 113 115 113 112 109 106 104 101 99 98 100
190 243 236 230 247 260 267 245 258 259 293 163 206 197 113 157 129 152 158 156 167 166 176 174 175 178 180 182 184 183 172 163 139 131 127 124 120 119 118 117 115 113 112 111 109 107 107 108 106
221 245 237 234 246 244 240 259 273 271 274 230 169 220 110 170 157 145 153 171 182 173 177 179 178 180 181 182 184 172 147 143 138 132 129 126 124 121 119 119 117 116 114 114 113 112 112 111 107
239 242 240 261 273 272 235 232 242 250 260 256 171 185 137 165 167 153 170 184 188 182 181 180 179 184 181 183 182 148 149 144 140 139 134 132 127 128 124 121 120 119 118 117 115 116 115 115 110
237 241 252 243 248 262 270 262 269 271 270 255 301 212 147 165 162 169 174 175 184 185 185 183 180 184 178 173 154 153 148 145 146 140 138 138 134 134 132 126 128 126 123 119 116 117 117 118 117
225 251 222 229 235 239 253 298 204 255 251 258 41 337 108 168 171 177 186 184 182 176 184 182 183 183 174 167 158 151 153 154 147 145 148 138 133 137 142 138 133 129 125 118 116 117 119 122 114
208 224 217 231 229 249 259 179 238 233 198 256 251 179 163 175 182 185 181 179 181 176 184 189 185 179 175 170 159 163 158 158 151 147 133 136 148 149 145 139 134 129 124 118 113 115 118 117 114
216 236 233 253 247 269 286 193 217 248 244 212 221 219 191 191 194 193 195 189 190 192 180 177 174 176 183 176 166 164 162 160 161 140 134 163 165 147 144 138 135 130 129 125 120 119 117 129 130
241 228 243 262 262 209 240 256 244 216 229 224 236 229 206 204 204 199 201 194 190 182 175 172 172 176 189 188 170 168 163 168 165 148 174 180 167 152 149 146 144 142 145 145 141 145 144 134 134
224 230 231 238 260 256 232 230 242 253 240 241 239 226 207 204 207 198 207 205 199 183 177 180 176 187 191 202 179 165 170 179 175 156 185 185 168 159 157 155 154 150 149 145 142 144 142 139 135
220 225 234 241 245 238 233 235 235 225 240 242 226 228 220 205 212 200 206 205 197 188 180 182 183 191 198 186 172 166 183 186 174 172 184 175 168 167 165 164 158 153 149 145 143 142 143 141 140
251 257 252 233 220 219 223 244 234 227 235 228 234 221 218 216 213 207 204 206 205 191 185 185 185 186 190 171 178 177 187 181 182 179 174 174 174 173 170 167 162 157 153 150 150 147 145 141 138
242 246 250 241 206 221 185 254 221 225 221 233 222 225 220 214 214 211 213 208 207 198 196 189 188 186 185 183 187 191 183 186 190 179 175 178 180 174 172 168 163 158 156 154 150 148 144 139 135
233 233 228 245 209 198 206 249 229 253 213 221 225 216 219 220 217 215 216 211 208 207 196 191 189 187 190 188 189 189 179 190 188 182 177 184 179 175 172 167 162 159 156 153 151 146 147 142 136
217 229 232 242 209 210 210 237 244 265 229 214 220 221 215 214 213 213 212 214 211 205 201 194 193 188 191 188 185 182 184 192 184 186 183 182 177 175 173 168 165 164 160 156 153 151 148 142 139
242 246 242 237 225 207 213 238 217 227 259 215 208 215 217 215 212 210 212 213 210 207 198 203 190 190 189 186 178 178 180 182 186 187 184 182 176 176 172 170 167 163 162 159 157 155 152 147 144
248 242 249 243 229 224 220 237 227 219 234 242 239 246 220 213 206 205 208 212 209 207 210 200 209 191 185 186 183 183 177 182 188 186 186 182 178 177 174 172 167 166 164 159 157 156 154 152 156
246 240 233 245 267 212 227 236 219 228 240 231 228 229 238 225 204 201 204 205 204 202 207 211 206 194 188 186 179 177 173 179 179 186 183 182 183 179 177 174 173 167 166 162 159 157 157 160 157
244 240 250 238 225 243 205 252 214 229 235 238 237 232 226 225 222 203 199 202 204 200 205 211 203 198 189 183 178 178 179 182 188 188 186 185 186 183 179 177 174 172 169 167 164 163 164 163 163
243 248 239 245 225 227 220 246 222 216 220 228 229 225 224 220 219 218 201 204 209 207 205 211 207 203 193 184 182 185 184 195 190 189 188 188 186 187 182 180 176 174 172 171 170 169 170 168 172
241 245 250 263 224 232 214 209 252 204 223 226 216 221 215 212 217 217 219 206 207 208 206 208 206 205 196 190 190 190 190 194 191 188 189 189 188 189 186 181 178 177 177 176 174 174 171 172 172
227 228 226 235 229 239 223 212 228 200 219 222 229 196 201 208 210 212 214 208 201 202 203 203 206 205 200 191 193 197 197 200 196 195 193 193 192 190 188 187 182 179 180 180 179 178 177 177 178
238 213 217 211 168 233 196 206 224 224 253 267 297 254 207 197 204 209 211 213 199 200 201 200 204 204 201 196 200 202 201 202 203 202 197 199 196 193 191 189 186 182 181 183 182 181 181 182 185
260 208 216 299 103 106 158 304 243 226 223 215 248 217 233 249 218 207 209 211 202 200 203 201 203 204 203 203 204 203 203 202 203 202 199 201 199 196 193 191 190 187 185 184 185 186 186 184 187
316 328 183 205 208 196 191 182 165 187 169 186 214 227 230 229 238 214 208 207 207 203 205 202 203 199 203 205 203 197 193 195 206 202 200 199 201 198 194 193 194 191 187 186 188 190 191 193 196
332 4 203 191 205 29 124 185 174 94 79 86 73 46 19 23 217 225 219 205 204 197 200 199 201 199 201 199 201 196 194 190 203 209 207 205 200 199 198 196 195 195 192 190 191 193 195 201 212
31 37 11 202 124 144 58 14 102 75 67 64 72 64 50 28 6 12 213 200 202 196 199 200 201 200 199 201 202 196 197 193 201 205 209 206 202 199 197 199 197 196 196 194 195 198 199 206 221
Height
1498 1500 1503 1506 1511 1499 1494 1488 1477 1471 1465 1464 1466 1466 1469 1468 1473 1492 1489 1490 1488 1492 1498 1503 1507 1510 1514 1517 1521 1525 1527 1528 1529 1530 1531 1532 1533 1535 1536 1538 1540 1541 1541 1542 1542 1543 1543 1544 1545
1496 1501 1503 1503 1505 1503 1489 1478 1475 1468 1464 1466 1469 1470 1471 1476 1476 1483 1489 1491 1489 1492 1496 1502 1508 1511 1513 1516 1521 1524 1527 1528 1529 1530 1532 1533 1535 1536 1538 1539 1541 1541 1543 1543 1544 1545 1546 1546 1548
1495 1499 1501 1499 1496 1496 1487 1469 1466 1462 1462 1466 1472 1474 1475 1480 1481 1485 1487 1489 1490 1493 1496 1501 1507 1511 1513 1517 1520 1523 1526 1527 1529 1531 1533 1535 1536 1537 1539 1539 1541 1542 1544 1544 1545 1547 1548 1549 1550
1495 1499 1498 1493 1487 1479 1477 1469 1462 1462 1462 1465 1470 1473 1477 1481 1483 1484 1487 1490 1491 1495 1497 1500 1504 1510 1514 1517 1520 1522 1524 1527 1529 1531 1533 1536 1537 1538 1539 1541 1542 1544 1545 1546 1547 1549 1551 1552 1554
1495 1494 1494 1489 1483 1474 1466 1464 1461 1463 1462 1464 1469 1471 1477 1480 1483 1484 1487 1491 1492 1494 1499 1502 1503 1508 1514 1518 1521 1522 1524 1526 1529 1531 1533 1536 1538 1540 1541 1542 1544 1546 1547 1548 1550 1551 1553 1555 1557
1494 1488 1490 1488 1478 1469 1466 1462 1461 1461 1462 1464 1466 1470 1477 1478 1482 1487 1490 1491 1489 1496 1499 1502 1506 1508 1512 1517 1520 1522 1524 1526 1529 1532 1534 1537 1539 1541 1542 1544 1545 1547 1549 1550 1552 1553 1555 1557 1559
1490 1487 1484 1479 1474 1465 1458 1459 1459 1459 1461 1462 1466 1469 1475 1478 1482 1486 1487 1488 1492 1495 1498 1502 1506 1509 1513 1516 1518 1522 1525 1528 1529 1532 1534 1537 1539 1541 1543 1545 1547 1548 1550 1551 1553 1555 1557 1560 1561
1486 1485 1479 1474 1474 1467 1457 1456 1458 1459 1460 1463 1464 1465 1471 1476 1481 1485 1485 1490 1491 1494 1497 1502 1505 1509 1512 1514 1518 1522 1525 1528 1531 1532 1534 1536 1539 1541 1544 1546 1548 1549 1551 1553 1555 1557 1560 1562 1564
1484 1482 1475 1471 1467 1458 1455 1456 1455 1460 1462 1462 1465 1466 1469 1474 1480 1483 1486 1490 1492 1494 1497 1501 1504 1508 1511 1514 1517 1522 1525 1528 1531 1533 1534 1536 1540 1542 1544 1547 1549 1551 1553 1555 1557 1559 1562 1565 1566
1478 1473 1465 1453 1452 1454 1453 1452 1456 1460 1461 1462 1464 1466 1469 1471 1476 1482 1484 1486 1489 1492 1497 1500 1503 1506 1510 1513 1518 1521 1524 1528 1530 1533 1536 1538 1540 1542 1545 1547 1550 1552 1555 1558 1560 1562 1565 1567 1568
1466 1459 1454 1452 1449 1450 1451 1452 1455 1456 1458 1457 1460 1464 1464 1470 1475 1479 1483 1485 1487 1492 1496 1499 1503 1506 1507 1511 1517 1520 1524 1526 1529 1533 1537 1539 1540 1544 1546 1549 1551 1554 1557 1559 1561 1564 1566 1568 1569
1459 1452 1455 1451 1449 1449 1450 1452 1451 1452 1451 1455 1458 1459 1458 1463 1468 1472 1477 1481 1485 1489 1494 1498 1502 1505 1506 1511 1515 1519 1522 1526 1529 1532 1537 1538 1541 1544 1547 1549 1552 1554 1556 1558 1561 1564 1566 1567 1569
1447 1446 1446 1449 1448 1448 1449 1447 1448 1446 1450 1452 1453 1454 1457 1458 1463 1468 1474 1479 1482 1486 1491 1495 1500 1500 1506 1510 1512 1518 1523 1524 1528 1532 1535 1538 1541 1544 1546 1549 1552 1554 1557 1559 1561 1564 1565 1567 1569
1436 1441 1439 1441 1442 1444 1446 1446 1446 1439 1444 1445 1448 1451 1452 1456 1458 1463 1468 1472 1478 1483 1488 1493 1497 1499 1504 1508 1511 1516 1521 1524 1527 1531 1534 1537 1540 1543 1546 1549 1552 1554 1557 1559 1562 1564 1566 1567 1569
1434 1434 1431 1426 1431 1435 1441 1439 1427 1436 1438 1437 1441 1444 1448 1450 1454 1455 1460 1465 1472 1478 1484 1489 1492 1498 1502 1507 1510 1513 1517 1522 1524 1528 1532 1536 1539 1541 1545 1548 1551 1554 1557 1559 1562 1564 1566 1568 1570
1430 1431 1429 1402 1422 1425 1436 1418 1416 1425 1428 1431 1432 1438 1441 1444 1449 1452 1455 1461 1466 1471 1477 1485 1489 1494 1499 1504 1508 1511 1515 1518 1522 1526 1530 1533 1537 1540 1544 1548 1551 1554 1557 1559 1562 1564 1566 1568 1569
1421 1413 1404 1408 1410 1420 1427 1408 1414 1415 1419 1422 1424 1428 1434 1438 1442 1446 1449 1454 1461 1466 1471 1479 1485 1491 1495 1500 1504 1509 1514 1516 1521 1525 1528 1531 1535 1539 1543 1547 1551 1554 1557 1559 1561 1564 1567 1568 1570
1389 1398 1396 1403 1403 1407 1414 1404 1411 1410 1412 1412 1416 1419 1424 1429 1432 1440 1443 1447 1454 1461 1465 1472 1478 1486 1492 1495 1501 1506 1511 1515 1518 1524 1527 1529 1534 1538 1541 1546 1550 1553 1556 1558 1561 1563 1566 1569 1570
1396 1401 1398 1392 1392 1395 1399 1393 1402 1407 1405 1404 1407 1411 1415 1420 1428 1433 1437 1442 1447 1455 1459 1464 1472 1479 1486 1491 1496 1500 1506 1512 1517 1522 1527 1528 1532 1536 1540 1544 1548 1552 1556 1558 1560 1562 1565 1568 1570
1395 1396 1392 1385 1384 1390 1391 1387 1394 1396 1397 1401 1402 1404 1406 1413 1418 1424 1428 1435 1439 1447 1455 1459 1466 1474 1478 1486 1493 1498 1504 1510 1516 1520 1526 1530 1531 1535 1539 1543 1546 1550 1553 1557 1560 1563 1564 1567 1569
1389 1387 1392 1393 1382 1377 1384 1385 1389 1389 1392 1393 1396 1399 1403 1405 1410 1415 1421 1425 1433 1438 1447 1456 1462 1469 1476 1483 1489 1498 1503 1508 1514 1520 1524 1529 1533 1534 1539 1541 1545 1549 1553 1556 1559 1562 1564 1565 1567
1384 1381 1389 1382 1387 1391 1395 1388 1385 1383 1384 1386 1386 1390 1394 1399 1405 1409 1413 1417 1425 1433 1441 1450 1456 1462 1470 1478 1482 1490 1495 1499 1508 1516 1523 1527 1533 1535 1536 1541 1544 1548 1552 1555 1558 1561 1563 1565 1566
1369 1372 1377 1385 1374 1383 1388 1394 1377 1372 1375 1374 1378 1382 1386 1392 1398 1403 1406 1408 1418 1426 1433 1442 1449 1456 1462 1469 1479 1481 1486 1500 1503 1510 1518 1524 1530 1535 1536 1538 1542 1547 1550 1553 1556 1560 1562 1564 1566
1368 1370 1373 1371 1376 1368 1372 1380 1360 1367 1362 1366 1366 1369 1375 1382 1390 1396 1401 1403 1409 1417 1425 1434 1441 1448 1456 1463 1469 1480 1480 1486 1497 1505 1512 1520 1527 1533 1537 1537 1540 1545 1549 1552 1555 1558 1561 1563 1564
1361 1369 1375 1379 1370 1365 1362 1372 1362 1353 1353 1355 1356 1357 1364 1373 1381 1386 1393 1397 1400 1407 1417 1427 1434 1442 1449 1457 1464 1470 1480 1488 1488 1499 1505 1515 1522 1529 1534 1537 1538 1541 1547 1551 1554 1556 1559 1561 1563
1351 1351 1357 1356 1351 1354 1354 1361 1359 1347 1347 1348 1352 1357 1360 1364 1370 1378 1385 1393 1392 1399 1411 1417 1428 1436 1444 1451 1459 1466 1474 1478 1487 1494 1500 1511 1518 1525 1530 1536 1538 1539 1542 1548 1552 1555 1557 1559 1561
1339 1347 1350 1359 1354 1367 1355 1352 1337 1340 1344 1350 1351 1353 1357 1362 1367 1370 1377 1385 1386 1394 1403 1410 1421 1430 1438 1446 1454 1460 1464 1475 1482 1491 1494 1505 1515 1521 1527 1533 1538 1539 1540 1545 1550 1553 1556 1558 1559
1356 1350 1351 1354 1348 1349 1340 1344 1337 1340 1345 1345 1349 1353 1356 1358 1362 1366 1370 1377 1381 1387 1396 1406 1414 1422 1430 1438 1446 1453 1460 1469 1485 1489 1493 1496 1510 1518 1524 1529 1535 1538 1540 1542 1546 1551 1554 1556 1557
1360 1354 1342 1347 1340 1342 1343 1342 1325 1336 1339 1345 1349 1353 1356 1355 1357 1361 1366 1371 1376 1382 1390 1400 1409 1419 1426 1433 1442 1448 1456 1462 1476 1486 1490 1497 1502 1513 1520 1526 1531 1536 1538 1541 1545 1548 1551 1554 1555
1375 1370 1367 1338 1345 1342 1344 1352 1336 1337 1344 1348 1353 1356 1358 1359 1358 1359 1362 1367 1371 1376 1385 1393 1403 1412 1419 1428 1435 1443 1451 1459 1470 1477 1487 1494 1499 1506 1511 1522 1527 1533 1537 1539 1543 1546 1549 1551 1553